Weather History for CWCO - October, 2012

Change the Weather History Date:

Wednesday, October 10, 2012

  Actual Average Record
Temperature  
Mean Temperature 46 °F -  
Max Temperature 53 °F - - ()
Min Temperature 40 °F - - ()
Degree Days  
Heating Degree Days 18    
Moisture  
Dew Point 39 °F    
Average Humidity 72    
Maximum Humidity 88    
Minimum Humidity 45    
Precipitation  
Precipitation 0.03 in - - ()
Sea Level Pressure  
Sea Level Pressure 29.79 in    
Wind  
Wind Speed 7 mph ()    
Max Wind Speed 15 mph    
Max Gust Speed 28 mph    
T = Trace of Precipitation, MM = Missing Value Source: Averaged Metar Reports

Daily Weather History Graph

Daily Weather History Graph

Search for Another Location

Airport or City:

Trip Planner

Search our weather history database for the weather conditions in past years. The results will help you decide how hot, cold, wet, or windy it might be!

Date:

Astronomy

Oct. 10, 2012 Rise Set
Actual Time 7:30 AM EDT 6:44 PM EDT
Civil Twilight 7:01 AM EDT 7:13 PM EDT
Nautical Twilight 6:27 AM EDT 7:47 PM EDT
Astronomical Twilight 5:53 AM EDT 8:20 PM EDT
Moon 1:53 AM EDT (10/10) 3:56 PM EDT (10/10)
Length of Visible Light 12h 12m
Length of Day
11h 14m
Waning Crescent, 27% of the Moon is Illuminated
Oct 10
Waning Crescent
Oct 15
New
Oct 21
First Quarter
Oct 29
Full
Nov 6
Last Quarter

Hourly Weather History & Observations

Time (EDT) Temp. Windchill Dew Point Humidity Pressure Visibility Wind Dir Wind Speed Gust Speed Precip Events Conditions
12:00 AM 52.9 °F - 39.4 °F 60% 29.82 in - SSE 8.1 mph - N/A   Unknown
1:00 AM 53.2 °F - 39.0 °F 59% 29.80 in - South 8.1 mph - N/A   Unknown
2:00 AM 52 °F - 40 °F 52% 29.78 in - SSE 9.2 mph - -  
2:00 AM 51.8 °F - 39.6 °F 63% 29.78 in - SSE 9.2 mph - N/A   Unknown
3:00 AM 50.7 °F - 39.7 °F 66% 29.75 in - SSE 5.8 mph - N/A   Unknown
4:00 AM 50.9 °F - 40.1 °F 67% 29.73 in - SSE 5.8 mph - N/A   Unknown
5:00 AM 51.6 °F - 40.8 °F 67% 29.69 in - South 5.8 mph - N/A   Unknown
7:00 AM 52.0 °F - 42.4 °F 70% 29.66 in - SSW 3.5 mph - N/A   Unknown
8:00 AM 46 °F - 41 °F 76% 29.70 in - West 10.4 mph - -  
8:00 AM 45.7 °F 40.6 °F 40.8 °F 83% 29.70 in - West 10.4 mph 25.3 mph N/A   Unknown
9:00 AM 44.4 °F 42.9 °F 40.5 °F 86% 29.73 in - West 3.5 mph - 0.01 in   Unknown
10:00 AM 44.6 °F 42.2 °F 40.3 °F 85% 29.74 in - West 4.6 mph - N/A   Unknown
11:00 AM 45.7 °F 42.7 °F 41.2 °F 84% 29.75 in - West 5.8 mph - N/A   Unknown
12:00 PM 48.7 °F - 41.7 °F 77% 29.75 in - West 8.1 mph 17.3 mph N/A   Unknown
1:00 PM 50.9 °F - 36.5 °F 58% 29.75 in - West 11.5 mph 20.7 mph N/A   Unknown
2:00 PM 48 °F - 33 °F 45% 29.76 in - West 15.0 mph - -  
2:00 PM 48.4 °F - 33.4 °F 56% 29.76 in - West 15.0 mph 27.6 mph N/A   Unknown
3:00 PM 48.7 °F - 35.1 °F 59% 29.77 in - West 9.2 mph 18.4 mph N/A   Unknown
4:00 PM 46.0 °F 42.5 °F 39.9 °F 79% 29.80 in - SW 6.9 mph 17.3 mph 0.02 in   Unknown
5:00 PM 45.0 °F 40.1 °F 37.8 °F 76% 29.82 in - West 9.2 mph - N/A   Unknown
6:00 PM 44.4 °F 40.0 °F 36.5 °F 74% 29.82 in - West 8.1 mph - N/A   Unknown
7:00 PM 42.4 °F 37.5 °F 37.8 °F 83% 29.86 in - West 8.1 mph 21.9 mph 0.01 in   Unknown
8:00 PM 42 °F - 37 °F 75% 29.88 in - West 8.1 mph - -  
8:00 PM 41.7 °F 36.7 °F 36.7 °F 82% 29.88 in - West 8.1 mph - N/A   Unknown
9:00 PM 40.3 °F 33.9 °F 36.7 °F 87% 29.91 in - West 10.4 mph 17.3 mph 0.06 in   Unknown
10:00 PM 40.8 °F 36.2 °F 37.4 °F 88% 29.94 in - West 6.9 mph - 0.02 in   Unknown
11:00 PM 40.8 °F 35.0 °F 37.4 °F 88% 29.95 in - West 9.2 mph 18.4 mph 0.01 in   Unknown